Regional Weather Roundup
Issued by NWS Goodland, KS

Home | Current Version | Previous Version | Graphics & Text | Print | Product List | Glossary On
Versions: 1 2 3 4 5 6 7 8 9 10 11 12 13 14 15 16 17 18 19 20 21 22 23 24 25 26 27 28 29 30 31 32 33 34 35 36 37 38 39 40 41 42 43 44 45 46 47 48 49 50
000
ASUS43 KGLD 021708
RWRGLD

GOODLAND FORECAST AREA HOURLY WEATHER ROUNDUP
NATIONAL WEATHER SERVICE GOODLAND KS
1100 AM MDT WED SEP 02 2015

...OFFICIAL OBSERVATIONS...

CITY           SKY/WX    TMP DP  RH WIND       PRES   REMARKS
GOODLAND KS    MOSUNNY   88  48  25 N7        29.98F
HILL CITY KS   SUNNY     90  59  35 S10       29.91S
IMPERIAL NEB   SUNNY     85  53  33 CALM      29.95F
MCCOOK NEB     SUNNY     87  61  41 CALM      29.91F
AKRON CO       SUNNY     84  42  22 N13       30.06F
BURLINGTON CO  PTSUNNY   86  49  27 VRB5      30.03F
LIMON CO       PTSUNNY   82  43  25 N9        30.13S
$$

...UNOFFICIAL OBSERVATIONS...

CITY           SKY/WX    TMP DP  RH WIND       PRES   REMARKS
COLBY KS       SUNNY     91  61  35 N5        29.95F
GOVE KS          N/A     87  32  14 MISG        N/A
LENORA KS        N/A     87  32  14 MISG        N/A
NORTON KS      SUNNY     88  55  33 S6        29.90S
TRENTON NEB      N/A     90  32  12 S5          N/A
KIT CARSON CO    N/A     88  53  30 MISG        N/A
YUMA CO          N/A     87  47  24 NE5         N/A
$$


USA.gov is the U.S. government's official web portal to all federal, state and local government web resources and services.